Time,TemperatureF,DewpointF,PressureIn,WindDirection,WindDirectionDegrees,WindSpeedMPH,WindSpeedGustMPH,Humidity,HourlyPrecipIn,Conditions,Clouds,dailyrainin,SoftwareType,DateUTC
2013-01-09 00:00:00,33.2,29.2,30.02,SW,225,0.0,0.0,85,0.00,,,0.00,VWS V13.01,2013-01-09 05:00:00,
2013-01-09 00:05:00,33.2,29.2,30.02,SW,225,0.0,1.0,85,0.00,,,0.00,VWS V13.01,2013-01-09 05:05:00,
2013-01-09 00:10:00,33.2,29.2,30.02,SW,225,0.0,0.0,85,0.00,,,0.00,VWS V13.01,2013-01-09 05:10:00,
2013-01-09 00:15:00,33.2,29.2,30.02,SW,225,0.0,0.0,85,0.00,,,0.00,VWS V13.01,2013-01-09 05:15:00,
2013-01-09 00:20:00,33.2,29.2,30.02,SW,225,0.0,0.0,85,0.00,,,0.00,VWS V13.01,2013-01-09 05:20:00,
2013-01-09 00:25:00,33.2,29.2,30.02,SW,225,0.0,1.0,85,0.00,,,0.00,VWS V13.01,2013-01-09 05:25:00,
2013-01-09 00:30:00,33.2,29.2,30.02,SW,225,0.0,1.0,85,0.00,,,0.00,VWS V13.01,2013-01-09 05:30:00,
2013-01-09 00:35:00,33.3,29.6,30.02,SW,225,0.0,0.0,86,0.00,,,0.00,VWS V13.01,2013-01-09 05:35:00,
2013-01-09 00:40:00,33.3,29.6,30.02,SW,225,0.0,0.0,86,0.00,,,0.00,VWS V13.01,2013-01-09 05:40:00,
2013-01-09 00:45:00,33.4,29.7,30.01,SW,225,0.0,1.0,86,0.00,,,0.00,VWS V13.01,2013-01-09 05:45:00,
2013-01-09 00:50:00,33.4,29.7,30.01,SW,225,0.0,0.0,86,0.00,,,0.00,VWS V13.01,2013-01-09 05:50:00,
2013-01-09 00:55:00,33.4,29.7,30.01,SW,225,0.0,1.0,86,0.00,,,0.00,VWS V13.01,2013-01-09 05:55:00,
2013-01-09 01:00:00,33.4,29.7,30.00,SW,225,0.0,0.0,86,0.00,,,0.00,VWS V13.01,2013-01-09 06:00:00,
2013-01-09 01:05:00,33.4,29.7,30.00,SW,225,0.0,0.0,86,0.00,,,0.00,VWS V13.01,2013-01-09 06:05:00,
2013-01-09 01:10:00,33.3,29.6,30.00,SW,225,0.0,0.0,86,0.00,,,0.00,VWS V13.01,2013-01-09 06:10:00,
2013-01-09 01:15:00,33.3,29.6,30.00,SW,225,0.0,0.0,86,0.00,,,0.00,VWS V13.01,2013-01-09 06:15:00,
2013-01-09 01:20:00,33.2,29.5,30.00,SW,225,0.0,0.0,86,0.00,,,0.00,VWS V13.01,2013-01-09 06:20:00,
2013-01-09 01:25:00,33.1,29.4,30.00,SW,225,0.0,0.0,86,0.00,,,0.00,VWS V13.01,2013-01-09 06:25:00,
2013-01-09 01:30:00,33.1,29.7,30.00,SW,225,0.0,1.0,87,0.00,,,0.00,VWS V13.01,2013-01-09 06:30:00,
2013-01-09 01:35:00,33.1,29.7,30.00,SW,225,0.0,1.0,87,0.00,,,0.00,VWS V13.01,2013-01-09 06:35:00,
2013-01-09 01:40:00,33.3,30.1,30.00,South,180,0.0,1.0,88,0.00,,,0.00,VWS V13.01,2013-01-09 06:40:00,
2013-01-09 01:45:00,33.5,30.3,29.99,South,180,0.0,0.0,88,0.00,,,0.00,VWS V13.01,2013-01-09 06:45:00,
2013-01-09 01:50:00,33.7,30.5,29.99,South,180,0.0,1.0,88,0.00,,,0.00,VWS V13.01,2013-01-09 06:50:00,
2013-01-09 01:55:00,33.9,30.7,29.99,SSW,202,0.0,1.0,88,0.00,,,0.00,VWS V13.01,2013-01-09 06:55:00,
2013-01-09 02:00:00,34.1,30.9,29.99,SSE,158,0.0,1.0,88,0.00,,,0.00,VWS V13.01,2013-01-09 07:00:00,
2013-01-09 02:05:00,34.3,30.8,29.99,SSE,158,0.0,2.0,87,0.00,,,0.00,VWS V13.01,2013-01-09 07:05:00,
2013-01-09 02:10:00,34.6,31.4,29.99,SSE,158,0.0,1.0,88,0.00,,,0.00,VWS V13.01,2013-01-09 07:10:00,
2013-01-09 02:15:00,35.0,31.5,29.99,SSE,158,0.0,1.0,87,0.00,,,0.00,VWS V13.01,2013-01-09 07:15:00,
2013-01-09 02:20:00,35.3,31.8,29.99,SSE,158,0.0,1.0,87,0.00,,,0.00,VWS V13.01,2013-01-09 07:20:00,
2013-01-09 02:25:00,35.6,31.8,29.99,WSW,248,0.0,3.0,86,0.00,,,0.00,VWS V13.01,2013-01-09 07:25:00,
2013-01-09 02:30:00,35.9,32.1,29.98,WSW,248,0.0,0.0,86,0.00,,,0.00,VWS V13.01,2013-01-09 07:30:00,
2013-01-09 02:35:00,36.1,32.3,29.98,SSW,202,0.0,1.0,86,0.00,,,0.00,VWS V13.01,2013-01-09 07:35:00,
2013-01-09 02:40:00,36.3,32.2,29.98,SSW,202,0.0,1.0,85,0.00,,,0.00,VWS V13.01,2013-01-09 07:40:00,
2013-01-09 02:45:00,36.6,32.5,29.98,SSW,202,0.0,1.0,85,0.00,,,0.00,VWS V13.01,2013-01-09 07:45:00,
2013-01-09 02:50:00,36.9,32.8,29.98,SSW,202,0.0,1.0,85,0.00,,,0.00,VWS V13.01,2013-01-09 07:50:00,
2013-01-09 02:55:00,37.1,32.7,29.98,SSW,202,0.0,1.0,84,0.00,,,0.00,VWS V13.01,2013-01-09 07:55:00,
2013-01-09 03:00:00,37.4,33.0,29.98,SSW,202,0.0,2.0,84,0.00,,,0.00,VWS V13.01,2013-01-09 08:00:00,
2013-01-09 03:05:00,37.6,32.9,29.98,SSW,202,0.0,1.0,83,0.00,,,0.00,VWS V13.01,2013-01-09 08:05:00,
2013-01-09 03:10:00,37.7,33.0,29.98,SSW,202,0.0,1.0,83,0.00,,,0.00,VWS V13.01,2013-01-09 08:10:00,
2013-01-09 03:15:00,37.8,33.1,29.98,SSW,202,0.0,1.0,83,0.00,,,0.00,VWS V13.01,2013-01-09 08:15:00,
2013-01-09 03:20:00,37.9,33.2,29.98,SSW,202,0.0,1.0,83,0.00,,,0.00,VWS V13.01,2013-01-09 08:20:00,
2013-01-09 03:25:00,38.0,33.3,29.98,SSW,202,0.0,1.0,83,0.00,,,0.00,VWS V13.01,2013-01-09 08:25:00,
2013-01-09 03:30:00,38.0,33.3,29.98,SSW,202,0.0,1.0,83,0.00,,,0.00,VWS V13.01,2013-01-09 08:30:00,
2013-01-09 03:35:00,38.1,33.4,29.98,SSW,202,0.0,1.0,83,0.00,,,0.00,VWS V13.01,2013-01-09 08:35:00,
2013-01-09 03:40:00,38.3,33.6,29.98,SSW,202,0.0,1.0,83,0.00,,,0.00,VWS V13.01,2013-01-09 08:40:00,
2013-01-09 03:45:00,38.4,33.7,29.98,SSW,202,0.0,1.0,83,0.00,,,0.00,VWS V13.01,2013-01-09 08:45:00,
2013-01-09 03:50:00,38.7,34.0,29.98,SSW,202,0.0,3.0,83,0.00,,,0.00,VWS V13.01,2013-01-09 08:50:00,
2013-01-09 03:55:00,38.9,33.9,29.98,SE,135,0.0,1.0,82,0.00,,,0.00,VWS V13.01,2013-01-09 08:55:00,
2013-01-09 04:00:00,39.1,34.1,29.98,SE,135,0.0,2.0,82,0.00,,,0.00,VWS V13.01,2013-01-09 09:00:00,
2013-01-09 04:05:00,39.3,34.3,29.98,SE,135,0.0,3.0,82,0.00,,,0.00,VWS V13.01,2013-01-09 09:05:00,
2013-01-09 04:10:00,39.6,34.6,29.98,WSW,248,0.0,7.0,82,0.00,,,0.00,VWS V13.01,2013-01-09 09:10:00,
2013-01-09 04:15:00,39.8,34.8,29.99,SSW,202,0.0,4.0,82,0.00,,,0.00,VWS V13.01,2013-01-09 09:15:00,
2013-01-09 04:20:00,40.1,34.8,29.99,WSW,248,1.0,6.0,81,0.00,,,0.00,VWS V13.01,2013-01-09 09:20:00,
2013-01-09 04:25:00,40.6,35.2,29.99,SW,225,1.0,6.0,81,0.00,,,0.00,VWS V13.01,2013-01-09 09:25:00,
2013-01-09 04:30:00,41.2,35.2,29.97,WSW,248,1.0,9.0,79,0.01,,,0.01,VWS V13.01,2013-01-09 09:30:00,
2013-01-09 04:35:00,41.5,35.5,29.97,SSE,158,0.0,3.0,79,0.01,,,0.01,VWS V13.01,2013-01-09 09:35:00,
2013-01-09 04:40:00,41.8,35.5,29.97,WSW,248,1.0,6.0,78,0.01,,,0.01,VWS V13.01,2013-01-09 09:40:00,
2013-01-09 04:45:00,42.0,35.7,29.97,SSW,202,1.0,4.0,78,0.01,,,0.01,VWS V13.01,2013-01-09 09:45:00,
2013-01-09 04:50:00,42.1,35.8,29.97,SW,225,1.0,4.0,78,0.01,,,0.01,VWS V13.01,2013-01-09 09:50:00,
2013-01-09 04:55:00,42.1,36.4,29.97,SW,225,0.0,3.0,80,0.01,,,0.01,VWS V13.01,2013-01-09 09:55:00,
2013-01-09 05:00:00,41.9,36.2,29.97,SW,225,0.0,2.0,80,0.02,,,0.02,VWS V13.01,2013-01-09 10:00:00,
2013-01-09 05:05:00,41.7,36.3,29.97,SW,225,1.0,5.0,81,0.02,,,0.02,VWS V13.01,2013-01-09 10:05:00,
2013-01-09 05:10:00,41.6,36.2,29.97,SW,225,0.0,5.0,81,0.02,,,0.02,VWS V13.01,2013-01-09 10:10:00,
2013-01-09 05:15:00,41.4,36.0,29.97,WSW,248,0.0,4.0,81,0.02,,,0.02,VWS V13.01,2013-01-09 10:15:00,
2013-01-09 05:20:00,41.3,35.9,29.97,SW,225,0.0,3.0,81,0.02,,,0.02,VWS V13.01,2013-01-09 10:20:00,
2013-01-09 05:25:00,41.3,35.9,29.97,SW,225,1.0,6.0,81,0.02,,,0.02,VWS V13.01,2013-01-09 10:25:00,
2013-01-09 05:30:00,41.2,35.8,29.97,SW,225,0.0,3.0,81,0.02,,,0.02,VWS V13.01,2013-01-09 10:30:00,
2013-01-09 05:35:00,41.1,35.7,29.97,WSW,248,1.0,6.0,81,0.02,,,0.03,VWS V13.01,2013-01-09 10:35:00,
2013-01-09 05:40:00,41.1,35.7,29.97,SW,225,0.0,3.0,81,0.02,,,0.03,VWS V13.01,2013-01-09 10:40:00,
2013-01-09 05:45:00,41.1,35.7,29.98,SW,225,1.0,6.0,81,0.02,,,0.03,VWS V13.01,2013-01-09 10:45:00,
2013-01-09 05:50:00,41.1,35.7,29.98,WSW,248,2.0,6.0,81,0.02,,,0.03,VWS V13.01,2013-01-09 10:50:00,
2013-01-09 05:55:00,41.1,35.4,29.98,WSW,248,1.0,4.0,80,0.02,,,0.03,VWS V13.01,2013-01-09 10:55:00,
2013-01-09 06:00:00,41.1,35.7,29.98,WSW,248,1.0,5.0,81,0.02,,,0.03,VWS V13.01,2013-01-09 11:00:00,
2013-01-09 06:05:00,41.1,35.7,29.98,SW,225,1.0,5.0,81,0.01,,,0.03,VWS V13.01,2013-01-09 11:05:00,
2013-01-09 06:10:00,41.0,35.6,29.98,SW,225,1.0,6.0,81,0.01,,,0.03,VWS V13.01,2013-01-09 11:10:00,
2013-01-09 06:15:00,41.0,35.6,29.99,SW,225,1.0,7.0,81,0.01,,,0.03,VWS V13.01,2013-01-09 11:15:00,
2013-01-09 06:20:00,41.0,35.6,29.99,WSW,248,1.0,9.0,81,0.01,,,0.03,VWS V13.01,2013-01-09 11:20:00,
2013-01-09 06:25:00,40.9,35.5,29.99,SW,225,1.0,5.0,81,0.02,,,0.04,VWS V13.01,2013-01-09 11:25:00,
2013-01-09 06:30:00,40.8,35.4,30.00,SW,225,2.0,7.0,81,0.02,,,0.04,VWS V13.01,2013-01-09 11:30:00,
2013-01-09 06:35:00,40.8,35.4,30.00,SW,225,2.0,8.0,81,0.02,,,0.04,VWS V13.01,2013-01-09 11:35:00,
2013-01-09 06:40:00,40.8,35.4,30.00,SW,225,2.0,10.0,81,0.01,,,0.04,VWS V13.01,2013-01-09 11:40:00,
2013-01-09 06:45:00,40.6,35.2,30.00,SW,225,1.0,6.0,81,0.01,,,0.04,VWS V13.01,2013-01-09 11:45:00,
2013-01-09 06:50:00,40.4,35.0,30.00,WSW,248,1.0,5.0,81,0.01,,,0.04,VWS V13.01,2013-01-09 11:50:00,
2013-01-09 06:55:00,40.3,34.9,30.00,SW,225,1.0,4.0,81,0.01,,,0.04,VWS V13.01,2013-01-09 11:55:00,
2013-01-09 07:00:00,40.1,35.1,30.01,SW,225,1.0,6.0,82,0.01,,,0.04,VWS V13.01,2013-01-09 12:00:00,
2013-01-09 07:05:00,40.0,35.0,30.01,WSW,248,1.0,6.0,82,0.01,,,0.04,VWS V13.01,2013-01-09 12:05:00,
2013-01-09 07:10:00,39.9,34.9,30.01,WSW,248,1.0,6.0,82,0.02,,,0.05,VWS V13.01,2013-01-09 12:10:00,
2013-01-09 07:15:00,39.8,34.8,30.02,WSW,248,1.0,6.0,82,0.02,,,0.05,VWS V13.01,2013-01-09 12:15:00,
2013-01-09 07:20:00,39.7,34.7,30.02,West,270,1.0,5.0,82,0.02,,,0.05,VWS V13.01,2013-01-09 12:20:00,
2013-01-09 07:25:00,39.5,34.5,30.02,WSW,248,2.0,8.0,82,0.02,,,0.05,VWS V13.01,2013-01-09 12:25:00,
2013-01-09 07:30:00,39.4,34.7,30.03,SW,225,1.0,5.0,83,0.01,,,0.05,VWS V13.01,2013-01-09 12:30:00,
2013-01-09 07:35:00,39.3,34.6,30.03,SW,225,1.0,4.0,83,0.01,,,0.05,VWS V13.01,2013-01-09 12:35:00,
2013-01-09 07:40:00,39.1,34.4,30.03,WSW,248,1.0,4.0,83,0.01,,,0.05,VWS V13.01,2013-01-09 12:40:00,
2013-01-09 07:45:00,39.0,34.3,30.04,SW,225,1.0,6.0,83,0.01,,,0.05,VWS V13.01,2013-01-09 12:45:00,
2013-01-09 07:50:00,38.8,34.1,30.04,WSW,248,2.0,5.0,83,0.01,,,0.05,VWS V13.01,2013-01-09 12:50:00,
2013-01-09 07:55:00,38.7,34.3,30.04,SW,225,1.0,5.0,84,0.01,,,0.05,VWS V13.01,2013-01-09 12:55:00,
2013-01-09 08:00:00,38.6,34.2,30.06,WSW,248,1.0,5.0,84,0.01,,,0.05,VWS V13.01,2013-01-09 13:00:00,
2013-01-09 08:05:00,38.4,34.0,30.06,WSW,248,1.0,5.0,84,0.01,,,0.05,VWS V13.01,2013-01-09 13:05:00,
2013-01-09 08:10:00,38.2,33.8,30.06,WSW,248,1.0,4.0,84,0.01,,,0.05,VWS V13.01,2013-01-09 13:10:00,
2013-01-09 08:15:00,38.0,33.6,30.07,WSW,248,2.0,5.0,84,0.00,,,0.05,VWS V13.01,2013-01-09 13:15:00,
2013-01-09 08:20:00,38.0,33.9,30.07,WSW,248,1.0,5.0,85,0.00,,,0.05,VWS V13.01,2013-01-09 13:20:00,
2013-01-09 08:25:00,37.8,33.7,30.07,WSW,248,1.0,5.0,85,0.00,,,0.05,VWS V13.01,2013-01-09 13:25:00,
2013-01-09 08:30:00,37.8,33.7,30.08,SW,225,1.0,5.0,85,0.00,,,0.05,VWS V13.01,2013-01-09 13:30:00,
2013-01-09 08:35:00,37.7,33.6,30.08,SW,225,2.0,6.0,85,0.00,,,0.05,VWS V13.01,2013-01-09 13:35:00,
2013-01-09 08:40:00,37.6,33.5,30.08,WSW,248,1.0,5.0,85,0.00,,,0.05,VWS V13.01,2013-01-09 13:40:00,
2013-01-09 08:45:00,37.6,33.5,30.09,WSW,248,2.0,6.0,85,0.00,,,0.05,VWS V13.01,2013-01-09 13:45:00,
2013-01-09 08:50:00,37.5,33.4,30.09,WSW,248,1.0,5.0,85,0.00,,,0.05,VWS V13.01,2013-01-09 13:50:00,
2013-01-09 08:55:00,37.5,33.7,30.09,WSW,248,1.0,5.0,86,0.00,,,0.05,VWS V13.01,2013-01-09 13:55:00,
2013-01-09 09:00:00,37.4,33.6,30.11,SW,225,0.0,3.0,86,0.00,,,0.05,VWS V13.01,2013-01-09 14:00:00,
2013-01-09 09:05:00,37.4,33.6,30.11,SW,225,0.0,3.0,86,0.00,,,0.05,VWS V13.01,2013-01-09 14:05:00,
2013-01-09 09:10:00,37.4,33.6,30.11,SW,225,1.0,4.0,86,0.00,,,0.05,VWS V13.01,2013-01-09 14:10:00,
2013-01-09 09:15:00,37.4,33.3,30.11,WSW,248,1.0,5.0,85,0.00,,,0.05,VWS V13.01,2013-01-09 14:15:00,
2013-01-09 09:20:00,37.5,33.4,30.11,SW,225,1.0,4.0,85,0.00,,,0.05,VWS V13.01,2013-01-09 14:20:00,
2013-01-09 09:25:00,37.5,33.4,30.11,SW,225,1.0,4.0,85,0.01,,,0.06,VWS V13.01,2013-01-09 14:25:00,
2013-01-09 09:30:00,37.7,33.6,30.12,SW,225,1.0,7.0,85,0.01,,,0.06,VWS V13.01,2013-01-09 14:30:00,
2013-01-09 09:35:00,37.8,33.7,30.12,SSW,202,1.0,5.0,85,0.01,,,0.06,VWS V13.01,2013-01-09 14:35:00,
2013-01-09 09:40:00,37.9,33.5,30.12,SW,225,0.0,3.0,84,0.01,,,0.06,VWS V13.01,2013-01-09 14:40:00,
2013-01-09 09:45:00,38.0,33.6,30.12,SW,225,1.0,4.0,84,0.01,,,0.06,VWS V13.01,2013-01-09 14:45:00,
2013-01-09 09:50:00,38.2,33.5,30.12,SW,225,1.0,3.0,83,0.01,,,0.06,VWS V13.01,2013-01-09 14:50:00,
2013-01-09 09:55:00,38.2,33.5,30.12,WSW,248,1.0,6.0,83,0.01,,,0.06,VWS V13.01,2013-01-09 14:55:00,
2013-01-09 10:00:00,38.4,33.7,30.13,WSW,248,1.0,5.0,83,0.01,,,0.06,VWS V13.01,2013-01-09 15:00:00,
2013-01-09 10:05:00,38.5,33.5,30.13,SW,225,1.0,5.0,82,0.01,,,0.06,VWS V13.01,2013-01-09 15:05:00,
2013-01-09 10:10:00,38.6,33.6,30.13,WSW,248,1.0,5.0,82,0.01,,,0.06,VWS V13.01,2013-01-09 15:10:00,
2013-01-09 10:15:00,38.7,33.7,30.13,WSW,248,1.0,4.0,82,0.01,,,0.06,VWS V13.01,2013-01-09 15:15:00,
2013-01-09 10:20:00,38.8,33.5,30.13,SW,225,1.0,5.0,81,0.01,,,0.06,VWS V13.01,2013-01-09 15:20:00,
2013-01-09 10:25:00,39.0,33.7,30.13,SW,225,1.0,4.0,81,0.01,,,0.06,VWS V13.01,2013-01-09 15:25:00,
2013-01-09 10:30:00,39.0,33.7,30.14,WSW,248,1.0,4.0,81,0.00,,,0.06,VWS V13.01,2013-01-09 15:30:00,
2013-01-09 10:35:00,39.1,33.8,30.14,WSW,248,1.0,6.0,81,0.00,,,0.06,VWS V13.01,2013-01-09 15:35:00,
2013-01-09 10:40:00,39.2,33.6,30.14,WSW,248,1.0,5.0,80,0.00,,,0.06,VWS V13.01,2013-01-09 15:40:00,
2013-01-09 10:45:00,39.3,33.7,30.14,WSW,248,1.0,5.0,80,0.00,,,0.06,VWS V13.01,2013-01-09 15:45:00,
2013-01-09 10:50:00,39.5,33.8,30.14,WSW,248,2.0,6.0,80,0.00,,,0.06,VWS V13.01,2013-01-09 15:50:00,
2013-01-09 10:55:00,39.6,33.6,30.14,WSW,248,1.0,5.0,79,0.00,,,0.06,VWS V13.01,2013-01-09 15:55:00,
2013-01-09 11:00:00,39.8,33.8,30.14,WSW,248,0.0,2.0,79,0.00,,,0.06,VWS V13.01,2013-01-09 16:00:00,
2013-01-09 11:05:00,40.0,33.7,30.14,WSW,248,1.0,5.0,78,0.00,,,0.06,VWS V13.01,2013-01-09 16:05:00,
2013-01-09 11:10:00,40.0,33.7,30.14,WSW,248,1.0,5.0,78,0.00,,,0.06,VWS V13.01,2013-01-09 16:10:00,
2013-01-09 11:15:00,40.1,33.8,30.15,SSW,202,1.0,3.0,78,0.00,,,0.06,VWS V13.01,2013-01-09 16:15:00,
2013-01-09 11:20:00,40.1,33.8,30.15,WSW,248,2.0,6.0,78,0.00,,,0.06,VWS V13.01,2013-01-09 16:20:00,
2013-01-09 11:25:00,40.4,33.8,30.15,WSW,248,1.0,5.0,77,0.00,,,0.06,VWS V13.01,2013-01-09 16:25:00,
2013-01-09 11:30:00,40.6,34.0,30.14,SW,225,0.0,3.0,77,0.00,,,0.06,VWS V13.01,2013-01-09 16:30:00,
2013-01-09 11:35:00,40.8,33.8,30.14,SSE,158,1.0,4.0,76,0.00,,,0.06,VWS V13.01,2013-01-09 16:35:00,
2013-01-09 11:40:00,40.8,33.8,30.14,WSW,248,1.0,6.0,76,0.00,,,0.06,VWS V13.01,2013-01-09 16:40:00,
2013-01-09 11:45:00,41.0,34.0,30.15,WSW,248,2.0,6.0,76,0.00,,,0.06,VWS V13.01,2013-01-09 16:45:00,
2013-01-09 11:50:00,41.1,33.8,30.15,SW,225,0.0,3.0,75,0.00,,,0.06,VWS V13.01,2013-01-09 16:50:00,
2013-01-09 11:55:00,41.1,33.8,30.15,WSW,248,2.0,7.0,75,0.00,,,0.06,VWS V13.01,2013-01-09 16:55:00,
2013-01-09 12:00:00,41.1,34.1,30.15,WSW,248,2.0,9.0,76,0.00,,,0.06,VWS V13.01,2013-01-09 17:00:00,
2013-01-09 12:05:00,41.1,34.1,30.15,WSW,248,2.0,9.0,76,0.00,,,0.06,VWS V13.01,2013-01-09 17:05:00,
2013-01-09 12:10:00,41.1,33.8,30.15,WSW,248,1.0,6.0,75,0.00,,,0.06,VWS V13.01,2013-01-09 17:10:00,
2013-01-09 12:15:00,41.3,34.0,30.14,WSW,248,2.0,9.0,75,0.00,,,0.06,VWS V13.01,2013-01-09 17:15:00,
2013-01-09 12:20:00,41.3,34.0,30.14,WSW,248,2.0,6.0,75,0.00,,,0.06,VWS V13.01,2013-01-09 17:20:00,
2013-01-09 12:25:00,41.5,34.2,30.14,WSW,248,2.0,6.0,75,0.00,,,0.06,VWS V13.01,2013-01-09 17:25:00,
2013-01-09 12:30:00,41.6,33.9,30.14,WSW,248,2.0,6.0,74,0.00,,,0.06,VWS V13.01,2013-01-09 17:30:00,
2013-01-09 12:35:00,41.7,34.0,30.14,SW,225,1.0,4.0,74,0.00,,,0.06,VWS V13.01,2013-01-09 17:35:00,
2013-01-09 12:40:00,41.9,34.2,30.14,SW,225,1.0,4.0,74,0.00,,,0.06,VWS V13.01,2013-01-09 17:40:00,
2013-01-09 12:45:00,42.0,34.3,30.14,WSW,248,2.0,6.0,74,0.00,,,0.06,VWS V13.01,2013-01-09 17:45:00,
2013-01-09 12:50:00,41.9,34.2,30.14,WSW,248,3.0,8.0,74,0.01,,,0.07,VWS V13.01,2013-01-09 17:50:00,
2013-01-09 12:55:00,42.2,34.5,30.14,SSW,202,1.0,5.0,74,0.01,,,0.07,VWS V13.01,2013-01-09 17:55:00,
2013-01-09 13:00:00,42.5,34.5,30.15,WSW,248,1.0,4.0,73,0.01,,,0.07,VWS V13.01,2013-01-09 18:00:00,
2013-01-09 13:05:00,42.4,34.7,30.15,West,270,2.0,5.0,74,0.01,,,0.07,VWS V13.01,2013-01-09 18:05:00,
2013-01-09 13:10:00,42.4,34.7,30.15,WSW,248,1.0,6.0,74,0.01,,,0.07,VWS V13.01,2013-01-09 18:10:00,
2013-01-09 13:15:00,42.7,34.7,30.14,SW,225,0.0,3.0,73,0.01,,,0.07,VWS V13.01,2013-01-09 18:15:00,
2013-01-09 13:20:00,43.2,34.8,30.14,SW,225,0.0,3.0,72,0.01,,,0.07,VWS V13.01,2013-01-09 18:20:00,
2013-01-09 13:25:00,43.6,34.8,30.14,WSW,248,1.0,6.0,71,0.01,,,0.07,VWS V13.01,2013-01-09 18:25:00,
2013-01-09 13:30:00,44.1,35.0,30.15,WSW,248,2.0,7.0,70,0.01,,,0.07,VWS V13.01,2013-01-09 18:30:00,
2013-01-09 13:35:00,44.3,34.4,30.15,WSW,248,2.0,5.0,68,0.01,,,0.07,VWS V13.01,2013-01-09 18:35:00,
2013-01-09 13:40:00,44.5,34.2,30.15,West,270,3.0,11.0,67,0.01,,,0.07,VWS V13.01,2013-01-09 18:40:00,
2013-01-09 13:45:00,44.8,34.5,30.15,West,270,2.0,6.0,67,0.01,,,0.07,VWS V13.01,2013-01-09 18:45:00,
2013-01-09 13:50:00,44.8,34.2,30.15,West,270,2.0,5.0,66,0.01,,,0.07,VWS V13.01,2013-01-09 18:50:00,
2013-01-09 13:55:00,45.0,34.0,30.15,WSW,248,3.0,10.0,65,0.00,,,0.07,VWS V13.01,2013-01-09 18:55:00,
2013-01-09 14:00:00,45.2,34.2,30.16,WSW,248,2.0,6.0,65,0.00,,,0.07,VWS V13.01,2013-01-09 19:00:00,
2013-01-09 14:05:00,45.6,33.8,30.16,WSW,248,1.0,6.0,63,0.00,,,0.07,VWS V13.01,2013-01-09 19:05:00,
2013-01-09 14:10:00,45.8,33.9,30.16,WSW,248,3.0,9.0,63,0.00,,,0.07,VWS V13.01,2013-01-09 19:10:00,
2013-01-09 14:15:00,46.0,33.7,30.17,WSW,248,1.0,4.0,62,0.00,,,0.07,VWS V13.01,2013-01-09 19:15:00,
2013-01-09 14:20:00,46.1,33.8,30.17,WNW,292,2.0,10.0,62,0.00,,,0.07,VWS V13.01,2013-01-09 19:20:00,
2013-01-09 14:25:00,46.3,33.2,30.17,WSW,248,2.0,5.0,60,0.01,,,0.08,VWS V13.01,2013-01-09 19:25:00,
2013-01-09 14:30:00,46.6,32.2,30.17,WSW,248,3.0,9.0,57,0.01,,,0.08,VWS V13.01,2013-01-09 19:30:00,
2013-01-09 14:35:00,46.6,31.8,30.17,West,270,3.0,7.0,56,0.01,,,0.08,VWS V13.01,2013-01-09 19:35:00,
2013-01-09 14:40:00,46.7,31.4,30.17,West,270,2.0,9.0,55,0.01,,,0.08,VWS V13.01,2013-01-09 19:40:00,
2013-01-09 14:45:00,46.9,29.7,30.17,West,270,4.0,10.0,51,0.01,,,0.08,VWS V13.01,2013-01-09 19:45:00,
2013-01-09 14:50:00,46.8,29.6,30.17,West,270,4.0,12.0,51,0.01,,,0.08,VWS V13.01,2013-01-09 19:50:00,
2013-01-09 14:55:00,46.7,30.0,30.17,West,270,4.0,12.0,52,0.01,,,0.08,VWS V13.01,2013-01-09 19:55:00,
2013-01-09 15:00:00,46.7,29.5,30.17,West,270,5.0,13.0,51,0.01,,,0.08,VWS V13.01,2013-01-09 20:00:00,
2013-01-09 15:05:00,46.7,30.0,30.17,West,270,4.0,15.0,52,0.01,,,0.08,VWS V13.01,2013-01-09 20:05:00,
2013-01-09 15:10:00,46.6,29.5,30.17,WSW,248,3.0,11.0,51,0.01,,,0.08,VWS V13.01,2013-01-09 20:10:00,
2013-01-09 15:15:00,46.5,29.8,30.18,WSW,248,2.0,6.0,52,0.01,,,0.08,VWS V13.01,2013-01-09 20:15:00,
2013-01-09 15:20:00,46.6,29.5,30.18,WSW,248,3.0,11.0,51,0.01,,,0.08,VWS V13.01,2013-01-09 20:20:00,
2013-01-09 15:25:00,46.7,30.0,30.18,WSW,248,3.0,9.0,52,0.01,,,0.08,VWS V13.01,2013-01-09 20:25:00,
2013-01-09 15:30:00,46.5,29.8,30.19,West,270,3.0,9.0,52,0.00,,,0.08,VWS V13.01,2013-01-09 20:30:00,
2013-01-09 15:35:00,46.5,29.8,30.19,WSW,248,4.0,12.0,52,0.00,,,0.08,VWS V13.01,2013-01-09 20:35:00,
2013-01-09 15:40:00,46.5,29.4,30.19,West,270,4.0,11.0,51,0.00,,,0.08,VWS V13.01,2013-01-09 20:40:00,
2013-01-09 15:45:00,46.5,28.9,30.21,WSW,248,3.0,9.0,50,0.00,,,0.08,VWS V13.01,2013-01-09 20:45:00,
2013-01-09 15:50:00,46.4,28.8,30.21,WSW,248,3.0,10.0,50,0.00,,,0.08,VWS V13.01,2013-01-09 20:50:00,
2013-01-09 15:55:00,46.3,28.7,30.21,West,270,4.0,10.0,50,0.00,,,0.08,VWS V13.01,2013-01-09 20:55:00,
2013-01-09 16:00:00,46.2,28.6,30.21,West,270,3.0,10.0,50,0.00,,,0.08,VWS V13.01,2013-01-09 21:00:00,
2013-01-09 16:05:00,46.0,28.4,30.21,West,270,2.0,11.0,50,0.00,,,0.08,VWS V13.01,2013-01-09 21:05:00,
2013-01-09 16:10:00,45.9,28.3,30.21,West,270,2.0,6.0,50,0.00,,,0.08,VWS V13.01,2013-01-09 21:10:00,
2013-01-09 16:15:00,45.6,28.0,30.22,WSW,248,3.0,6.0,50,0.00,,,0.08,VWS V13.01,2013-01-09 21:15:00,
2013-01-09 16:20:00,45.6,28.0,30.22,WSW,248,2.0,9.0,50,0.00,,,0.08,VWS V13.01,2013-01-09 21:20:00,
2013-01-09 16:25:00,45.4,28.4,30.22,WSW,248,3.0,9.0,51,0.00,,,0.08,VWS V13.01,2013-01-09 21:25:00,
2013-01-09 16:30:00,45.1,28.5,30.23,WSW,248,1.0,4.0,52,0.00,,,0.08,VWS V13.01,2013-01-09 21:30:00,
2013-01-09 16:35:00,45.1,28.5,30.23,WSW,248,3.0,9.0,52,0.00,,,0.08,VWS V13.01,2013-01-09 21:35:00,
2013-01-09 16:40:00,45.1,28.5,30.23,West,270,3.0,9.0,52,0.00,,,0.08,VWS V13.01,2013-01-09 21:40:00,
2013-01-09 16:45:00,44.8,28.3,30.24,West,270,4.0,10.0,52,0.00,,,0.08,VWS V13.01,2013-01-09 21:45:00,
2013-01-09 16:50:00,44.8,28.3,30.24,WSW,248,4.0,9.0,52,0.00,,,0.08,VWS V13.01,2013-01-09 21:50:00,
2013-01-09 16:55:00,44.6,28.1,30.24,West,270,2.0,7.0,52,0.00,,,0.08,VWS V13.01,2013-01-09 21:55:00,
2013-01-09 17:00:00,44.5,28.0,30.25,West,270,3.0,9.0,52,0.00,,,0.08,VWS V13.01,2013-01-09 22:00:00,
2013-01-09 17:05:00,44.4,27.9,30.25,West,270,3.0,7.0,52,0.00,,,0.08,VWS V13.01,2013-01-09 22:05:00,
2013-01-09 17:10:00,44.2,27.2,30.25,WSW,248,2.0,8.0,51,0.00,,,0.08,VWS V13.01,2013-01-09 22:10:00,
2013-01-09 17:15:00,44.1,26.7,30.25,WSW,248,3.0,14.0,50,0.00,,,0.08,VWS V13.01,2013-01-09 22:15:00,
2013-01-09 17:20:00,44.0,27.5,30.25,West,270,2.0,9.0,52,0.00,,,0.08,VWS V13.01,2013-01-09 22:20:00,
2013-01-09 17:25:00,43.8,27.3,30.25,West,270,2.0,5.0,52,0.00,,,0.08,VWS V13.01,2013-01-09 22:25:00,
2013-01-09 17:30:00,43.5,26.6,30.25,West,270,2.0,8.0,51,0.00,,,0.08,VWS V13.01,2013-01-09 22:30:00,
2013-01-09 17:35:00,43.4,27.0,30.25,WSW,248,3.0,8.0,52,0.00,,,0.08,VWS V13.01,2013-01-09 22:35:00,
2013-01-09 17:40:00,43.3,25.9,30.25,WSW,248,3.0,10.0,50,0.00,,,0.08,VWS V13.01,2013-01-09 22:40:00,
2013-01-09 17:45:00,43.1,26.2,30.26,WNW,292,1.0,5.0,51,0.00,,,0.08,VWS V13.01,2013-01-09 22:45:00,
2013-01-09 17:50:00,42.9,26.0,30.26,WSW,248,1.0,6.0,51,0.00,,,0.08,VWS V13.01,2013-01-09 22:50:00,
2013-01-09 17:55:00,42.7,26.8,30.26,WNW,292,2.0,6.0,53,0.00,,,0.08,VWS V13.01,2013-01-09 22:55:00,
2013-01-09 18:00:00,42.5,25.7,30.27,West,270,2.0,11.0,51,0.00,,,0.08,VWS V13.01,2013-01-09 23:00:00,
2013-01-09 18:05:00,42.3,26.4,30.27,WSW,248,1.0,6.0,53,0.00,,,0.08,VWS V13.01,2013-01-09 23:05:00,
2013-01-09 18:10:00,42.2,26.3,30.27,West,270,2.0,10.0,53,0.00,,,0.08,VWS V13.01,2013-01-09 23:10:00,
2013-01-09 18:15:00,42.0,26.1,30.28,WSW,248,1.0,5.0,53,0.00,,,0.08,VWS V13.01,2013-01-09 23:15:00,
2013-01-09 18:20:00,41.8,26.4,30.28,West,270,1.0,5.0,54,0.00,,,0.08,VWS V13.01,2013-01-09 23:20:00,
2013-01-09 18:25:00,41.5,26.5,30.28,West,270,0.0,2.0,55,0.00,,,0.08,VWS V13.01,2013-01-09 23:25:00,
2013-01-09 18:30:00,41.1,26.2,30.29,West,270,1.0,3.0,55,0.00,,,0.08,VWS V13.01,2013-01-09 23:30:00,
2013-01-09 18:35:00,40.7,26.2,30.29,WNW,292,1.0,5.0,56,0.00,,,0.08,VWS V13.01,2013-01-09 23:35:00,
2013-01-09 18:40:00,40.5,26.0,30.29,WNW,292,1.0,7.0,56,0.00,,,0.08,VWS V13.01,2013-01-09 23:40:00,
2013-01-09 18:45:00,40.3,26.3,30.29,West,270,1.0,4.0,57,0.00,,,0.08,VWS V13.01,2013-01-09 23:45:00,
2013-01-09 18:50:00,40.1,26.5,30.29,West,270,1.0,4.0,58,0.00,,,0.08,VWS V13.01,2013-01-09 23:50:00,
2013-01-09 18:55:00,40.0,26.4,30.29,WNW,292,1.0,6.0,58,0.00,,,0.08,VWS V13.01,2013-01-09 23:55:00,
2013-01-09 19:00:00,39.8,26.7,30.30,NNW,338,0.0,2.0,59,0.00,,,0.08,VWS V13.01,2013-01-10 00:00:00,
2013-01-09 19:05:00,39.6,26.5,30.30,NW,315,0.0,2.0,59,0.00,,,0.08,VWS V13.01,2013-01-10 00:05:00,
2013-01-09 19:10:00,39.4,26.7,30.30,NW,315,0.0,1.0,60,0.00,,,0.08,VWS V13.01,2013-01-10 00:10:00,
2013-01-09 19:15:00,39.3,26.2,30.31,WNW,292,0.0,5.0,59,0.00,,,0.08,VWS V13.01,2013-01-10 00:15:00,
2013-01-09 19:20:00,39.2,26.9,30.31,West,270,1.0,5.0,61,0.00,,,0.08,VWS V13.01,2013-01-10 00:20:00,
2013-01-09 19:25:00,39.2,26.5,30.31,West,270,0.0,2.0,60,0.00,,,0.08,VWS V13.01,2013-01-10 00:25:00,
2013-01-09 19:30:00,39.2,26.9,30.32,WNW,292,1.0,7.0,61,0.00,,,0.08,VWS V13.01,2013-01-10 00:30:00,
2013-01-09 19:35:00,39.2,26.9,30.32,West,270,0.0,4.0,61,0.00,,,0.08,VWS V13.01,2013-01-10 00:35:00,
2013-01-09 19:40:00,39.2,26.9,30.32,West,270,1.0,4.0,61,0.00,,,0.08,VWS V13.01,2013-01-10 00:40:00,
2013-01-09 19:45:00,39.2,27.3,30.31,West,270,1.0,6.0,62,0.00,,,0.08,VWS V13.01,2013-01-10 00:45:00,
2013-01-09 19:50:00,39.3,27.0,30.31,West,270,2.0,7.0,61,0.00,,,0.08,VWS V13.01,2013-01-10 00:50:00,
2013-01-09 19:55:00,39.5,27.6,30.31,West,270,2.0,5.0,62,0.00,,,0.08,VWS V13.01,2013-01-10 00:55:00,
2013-01-09 20:00:00,39.5,27.6,30.31,WNW,292,2.0,9.0,62,0.00,,,0.08,VWS V13.01,2013-01-10 01:00:00,
2013-01-09 20:05:00,39.5,27.6,30.31,WSW,248,1.0,6.0,62,0.00,,,0.08,VWS V13.01,2013-01-10 01:05:00,
2013-01-09 20:10:00,39.3,27.8,30.31,WNW,292,1.0,4.0,63,0.00,,,0.08,VWS V13.01,2013-01-10 01:10:00,
2013-01-09 20:15:00,39.2,27.7,30.32,NW,315,1.0,6.0,63,0.00,,,0.08,VWS V13.01,2013-01-10 01:15:00,
2013-01-09 20:20:00,39.1,28.0,30.32,NW,315,0.0,2.0,64,0.00,,,0.08,VWS V13.01,2013-01-10 01:20:00,
2013-01-09 20:25:00,39.0,27.9,30.32,WNW,292,1.0,7.0,64,0.00,,,0.08,VWS V13.01,2013-01-10 01:25:00,
2013-01-09 20:30:00,38.9,27.8,30.31,WNW,292,1.0,4.0,64,0.00,,,0.08,VWS V13.01,2013-01-10 01:30:00,
2013-01-09 20:35:00,38.7,27.6,30.31,WNW,292,1.0,5.0,64,0.00,,,0.08,VWS V13.01,2013-01-10 01:35:00,
2013-01-09 20:40:00,38.6,27.5,30.31,WNW,292,3.0,9.0,64,0.00,,,0.08,VWS V13.01,2013-01-10 01:40:00,
2013-01-09 20:45:00,38.6,27.9,30.31,West,270,1.0,6.0,65,0.00,,,0.08,VWS V13.01,2013-01-10 01:45:00,
2013-01-09 20:50:00,38.4,27.7,30.31,WNW,292,1.0,5.0,65,0.00,,,0.08,VWS V13.01,2013-01-10 01:50:00,
2013-01-09 20:55:00,38.3,28.0,30.31,NW,315,0.0,4.0,66,0.00,,,0.08,VWS V13.01,2013-01-10 01:55:00,
2013-01-09 21:00:00,38.1,28.1,30.32,West,270,0.0,3.0,67,0.00,,,0.08,VWS V13.01,2013-01-10 02:00:00,
2013-01-09 21:05:00,37.9,27.9,30.32,WSW,248,0.0,3.0,67,0.00,,,0.08,VWS V13.01,2013-01-10 02:05:00,
2013-01-09 21:10:00,37.9,28.3,30.32,WSW,248,0.0,4.0,68,0.00,,,0.08,VWS V13.01,2013-01-10 02:10:00,
2013-01-09 21:20:00,37.5,28.3,30.33,WSW,248,0.0,4.0,69,0.00,,,0.08,VWS V13.01,2013-01-10 02:20:00,
2013-01-09 21:25:00,37.3,28.4,30.33,WSW,248,0.0,2.0,70,0.00,,,0.08,VWS V13.01,2013-01-10 02:25:00,
2013-01-09 21:30:00,37.0,28.5,30.33,WSW,248,0.0,1.0,71,0.00,,,0.08,VWS V13.01,2013-01-10 02:30:00,
2013-01-09 21:35:00,36.8,28.3,30.33,WSW,248,0.0,1.0,71,0.00,,,0.08,VWS V13.01,2013-01-10 02:35:00,
2013-01-09 21:40:00,36.5,28.4,30.33,WSW,248,0.0,0.0,72,0.00,,,0.08,VWS V13.01,2013-01-10 02:40:00,
2013-01-09 21:45:00,36.3,28.5,30.34,WSW,248,0.0,0.0,73,0.00,,,0.08,VWS V13.01,2013-01-10 02:45:00,
2013-01-09 21:50:00,36.1,28.3,30.34,WSW,248,0.0,1.0,73,0.00,,,0.08,VWS V13.01,2013-01-10 02:50:00,
2013-01-09 21:55:00,35.9,28.4,30.34,WSW,248,0.0,0.0,74,0.00,,,0.08,VWS V13.01,2013-01-10 02:55:00,
2013-01-09 22:00:00,35.8,28.3,30.34,WSW,248,0.0,0.0,74,0.00,,,0.08,VWS V13.01,2013-01-10 03:00:00,
2013-01-09 22:05:00,35.7,28.2,30.34,WSW,248,0.0,0.0,74,0.00,,,0.08,VWS V13.01,2013-01-10 03:05:00,
2013-01-09 22:10:00,35.5,27.7,30.34,WSW,248,0.0,0.0,73,0.00,,,0.08,VWS V13.01,2013-01-10 03:10:00,
2013-01-09 22:15:00,35.3,27.9,30.36,WSW,248,0.0,0.0,74,0.00,,,0.08,VWS V13.01,2013-01-10 03:15:00,
2013-01-09 22:20:00,35.1,27.7,30.36,WSW,248,0.0,0.0,74,0.00,,,0.08,VWS V13.01,2013-01-10 03:20:00,
2013-01-09 22:25:00,34.8,27.0,30.36,WSW,248,0.0,0.0,73,0.00,,,0.08,VWS V13.01,2013-01-10 03:25:00,
2013-01-09 22:30:00,34.4,26.7,30.36,WSW,248,0.0,0.0,73,0.00,,,0.08,VWS V13.01,2013-01-10 03:30:00,
2013-01-09 22:35:00,34.1,27.0,30.36,WSW,248,0.0,0.0,75,0.00,,,0.08,VWS V13.01,2013-01-10 03:35:00,
2013-01-09 22:40:00,33.7,27.3,30.36,WSW,248,0.0,0.0,77,0.00,,,0.08,VWS V13.01,2013-01-10 03:40:00,
2013-01-09 22:45:00,33.4,27.0,30.36,WSW,248,0.0,0.0,77,0.00,,,0.08,VWS V13.01,2013-01-10 03:45:00,
2013-01-09 22:50:00,33.1,27.0,30.36,WSW,248,0.0,0.0,78,0.00,,,0.08,VWS V13.01,2013-01-10 03:50:00,
2013-01-09 22:55:00,32.8,27.0,30.36,WSW,248,0.0,0.0,79,0.00,,,0.08,VWS V13.01,2013-01-10 03:55:00,
2013-01-09 23:00:00,32.5,26.4,30.37,WSW,248,0.0,0.0,78,0.00,,,0.08,VWS V13.01,2013-01-10 04:00:00,
2013-01-09 23:05:00,32.3,26.5,30.37,WSW,248,0.0,1.0,79,0.00,,,0.08,VWS V13.01,2013-01-10 04:05:00,
2013-01-09 23:10:00,31.9,26.4,30.37,WSW,248,0.0,0.0,80,0.00,,,0.08,VWS V13.01,2013-01-10 04:10:00,
2013-01-09 23:15:00,31.5,26.4,30.37,WSW,248,0.0,0.0,81,0.00,,,0.08,VWS V13.01,2013-01-10 04:15:00,
2013-01-09 23:20:00,31.1,26.5,30.37,WSW,248,0.0,0.0,83,0.00,,,0.08,VWS V13.01,2013-01-10 04:20:00,
2013-01-09 23:25:00,30.9,26.6,30.37,WSW,248,0.0,0.0,84,0.00,,,0.08,VWS V13.01,2013-01-10 04:25:00,
2013-01-09 23:30:00,30.7,26.5,30.37,WSW,248,0.0,0.0,84,0.00,,,0.08,VWS V13.01,2013-01-10 04:30:00,
2013-01-09 23:35:00,30.4,26.1,30.37,WSW,248,0.0,0.0,84,0.00,,,0.08,VWS V13.01,2013-01-10 04:35:00,
2013-01-09 23:40:00,30.2,26.0,30.37,WSW,248,0.0,0.0,84,0.00,,,0.08,VWS V13.01,2013-01-10 04:40:00,
2013-01-09 23:45:00,30.1,25.9,30.38,WSW,248,0.0,0.0,84,0.00,,,0.08,VWS V13.01,2013-01-10 04:45:00,
2013-01-09 23:50:00,29.9,25.7,30.38,WSW,248,0.0,0.0,84,0.00,,,0.08,VWS V13.01,2013-01-10 04:50:00,
2013-01-09 23:55:00,29.6,25.6,30.38,WSW,248,0.0,0.0,85,0.00,,,0.08,VWS V13.01,2013-01-10 04:55:00,